Flag for Poland Weather past 2 weeks in Legnica, Poland

Now
61 °F

Sprinkles. Overcast.


Feels Like: 61 °F
Forecast: 54 / 67 °F
Wind: 3 mph from Southwest

Location: Wroclaw Ii

Current Time: Aug 23, 2014 at 2:42:42 AM

Latest Report: Aug 23, 2014 at 1:00 AM


Visibility: 19 mi

Pressure: 29.94 "Hg

Humidity: 82%

Dew point: 56 °F

Location of LegnicaLocation

Historic Weather in Legnica — Graph

°F

Legnica temperature yesterday

Maximum temperature yesterday: 73 °F (at 1:00 PM)
Minimum temperature yesterday: 45 °F (at 4:00 AM)
Average temperature yesterday: 61 °F

Past Weeks' High & Low Weather Summary

 TemperatureHumidityPressure
High87 °F (Aug 9, 4:00 PM)97% (Aug 22, 5:00 AM)30.06 "Hg (Aug 22, 5:00 AM)
Low45 °F (Aug 22, 4:00 AM)34% (Aug 22, 1:00 PM)29.62 "Hg (Aug 14, 12:00 AM)
Average65 °F71%29.90 "Hg
* Reported Aug 8 1:00 AM — Aug 23 1:00 AM, Legnica, Weather by CustomWeather, © 2014

Note: Actual official high and low records may vary slightly from our data, if they occured in-between our weather recording intervals... More about our weather records

Advertising

Legnica weather history for previous 24 hours

 ConditionsComfort  
Time TempWeatherWind HumidityBarometerVisibility
1:00 AM
Aug 23
61 °FSprinkles. Overcast.3 mph82%29.94 "Hg19 mi
12:00 AM63 °FSprinkles. Overcast.5 mph74%29.93 "Hg12 mi
11:00 PM
Aug 22
61 °FOvercast.3 mph71%29.93 "Hg25 mi
10:00 PM62 °FOvercast.3 mph72%29.93 "Hg19 mi
9:00 PM61 °FOvercast.2 mph68%29.93 "Hg19 mi
8:00 PM65 °FOvercast.1 mph54%29.92 "Hg31 mi
7:00 PM70 °FOvercast.2 mph43%29.92 "Hg31 mi
6:00 PM72 °FOvercast.1 mph39%29.92 "Hg31 mi
5:00 PM73 °FPartly sunny.2 mph38%29.94 "Hg31 mi
4:00 PM72 °FPartly sunny.2 mph40%29.95 "Hg31 mi
3:00 PM72 °FScattered clouds.1 mph42%29.96 "Hg31 mi
2:00 PM71 °FOvercast.5 mph34%29.98 "Hg31 mi
1:00 PM73 °FPartly sunny.6 mph34%29.98 "Hg31 mi
12:00 PM72 °FPartly sunny.5 mph36%29.99 "Hg31 mi
11:00 AM69 °FScattered clouds.2 mph48%30.01 "Hg31 mi
10:00 AM66 °FPassing clouds.2 mph62%30.02 "Hg31 mi
9:00 AM59 °FPassing clouds.2 mph79%30.02 "Hg31 mi
8:00 AM53 °FPassing clouds.2 mph88%30.03 "Hg16 mi
7:00 AM47 °FPassing clouds.2 mph95%30.03 "Hg6 mi
6:00 AM46 °FFog.2 mph96%30.03 "Hg5 mi
5:00 AM47 °FFog.2 mph97%30.03 "Hg4 mi
4:00 AM45 °FFog.2 mph96%30.04 "Hg1 mi
3:00 AM46 °FFog.1 mph95%30.06 "Hg6 mi
2:00 AMN/APassing clouds.26 mphN/AN/A3 mi
Weather by CustomWeather, © 2014

See weather overviewHow to use our weather pages